Location: Campbell Hill
(37.9301°N, 89.5490°W)
Time: 11:09:15
(UTC+00:00)

Cosmos 1452 Rocket - Pass Details

Date: 07 November 2025
Orbit: 763 x 770 km, 74.1° (Epoch: 07 December)

Event Time Altitude Azimuth Distance (km) Brightness Sun altitude
Rises 23:31:36 0° 337° (NNW) 3,236 6.8 -8.1°
Reaches altitude 10° 23:34:00 10° 334° (NNW) 2,307 6.1 -8.6°
Maximum altitude 23:39:09 60° 256° (WSW) 873 4.2 -9.6°
Drops below altitude 10° 23:44:16 10° 177° (S) 2,297 6.1 -10.5°
Sets 23:46:39 0° 173° (S) 3,220 6.8 -11.0°
